Tracking 29892 objects as of 21-Nov-2024
HD Live streaming from Space Station
objects crossing your sky now

BREEZE-KM R/B

Track BREEZE-KM R/B now!
10-day predictions


NORAD ID: 40064
Int'l Code: 2014-036D
Perigee: 1,163.9 km
Apogee: 1,519.3 km
Inclination: 82.5 °
Period: 112.3 minutes
Semi major axis: 7712 km
RCS: Unknown
Launch date: July 3, 2014
Source: Commonwealth of Independent States (former USSR) (CIS)
Launch site: PLESETSK MISSILE AND SPACE COMPLEX (PKMTR)

Note: This is a ROCKET BODY
Your satellite tracking list
Your tracking list is empty




NASA's NSSDC Master Catalog

Two Line Element Set (TLE):
1 40064U 14036D   24325.91915945  .00000005  00000-0 -24180-4 0  9992
2 40064  82.5087 126.7871 0230427  13.4960 347.2165 12.81747144485935
Source of the keplerian elements: AFSPC